User: anonymous   Login
Location: Beaurevoir
(49.9971°N, 3.3085°E)
Time: 14:18:21
(UTC+00:00)
Language:

SL-16 R/B - Orbit

View from above orbital plane
View from above orbital plane
View from above satellite
View from above satellite

Ground track
Ground track

The orbit data is extracted from the following two-line orbital elements,

1 27006U 01056F   24203.21617193 -.00000003  00000-0  47697-4 0  9999
2 27006  99.6902 350.6458 0015330  81.0821  92.0491 13.71034524131533
Epoch (UTC): 21 July 2024 05:11:17
Eccentricity: 0.0015330
inclination: 99.6902°
perigee height: 984 km
apogee height: 1007 km
right ascension of ascending node: 350.6458°
argument of perigee: 81.0821°
revolutions per day: 13.71034524
mean anomaly at epoch: 92.0491°
orbit number at epoch: 13153

The dashed part of the orbit path shows where the satellite is in the earth's shadow,  

DLR